SCP
0 0 0 0 0 0 0 0 0 0 0 0 0 0 0 0 0 0 0 0 0 0
0 0 0 0 0 0 0 0 0 0 0 0 0 0 0 0 0 0 0 0 0 0
0 0 0 0 0 0 0 0 0 0 0 0 0 0 0 0 0 0 0 0 0 0
0 0 0 0 0 0 0 0 0 0 0 0 0 0 0 0 0 0 0 0 0 0
0 0 0 0 0 0 0 0 0 0 0 0 0 0 0 0 0 0 0 0 0 0
0 0 0 0 0 0 0 0 0 0 0 0 0 0 0 0 0 0 0 0 0 0
0 0 0 0 0 0 0 0 0 0 0 0 0 0 0 0 0 0 0 0 0 0
0 0 0 0 0 0 0 0 0 0 0 0 0 0 0 0 0 0 0 0 0 0
0 0 0 0 0 0 0 0 0 0 0 0 0 0 0 0 0 0 0 0 0 0
0 0 0 0 0 0 0 0 0 0 0 0 0 0 0 0 0 0 0 0 0 0
0 0 0 0 0 0 0 0 0 0 0 0 0 0 0 0 0 0 0 0 0 0
0 0 0 0 0 0 0 0 0 0 0 0 0 0 0 0 0 0 0 0 0 0
0 0 0 0 0 0 0 0 0 0 0 0 0 0 0 0 0 0 0 0 0 0
0 0 0 0 0 0 0 0 0 0 0 0 0 0 0 0 0 0 0 0 0 0
Wind_Speed_500mb
41 39 31 33 34 37 39 43 46 43 40 40 42 42 44 45 44 43 45 46 38 36
39 34 37 36 34 36 40 43 44 45 44 44 44 44 44 43 42 42 43 45 39 38
37 31 30 30 33 36 41 43 45 46 46 46 46 46 45 43 41 40 39 40 34 34
30 24 26 31 35 39 41 45 45 46 45 45 45 43 40 39 37 36 36 37 34 31
29 27 29 33 36 38 40 43 42 43 43 42 43 40 38 36 35 34 35 36 36 33
25 25 28 31 34 37 39 40 43 42 42 42 40 37 37 35 35 34 34 33 32 31
27 26 30 33 35 37 39 40 41 41 41 39 37 35 34 34 35 33 32 30 29 28
27 29 32 34 35 35 34 35 37 39 38 38 36 34 33 33 33 29 26 23 22 25
30 30 33 34 34 33 31 31 32 31 31 33 35 32 30 29 26 22 17 17 18 18
30 30 34 36 36 33 30 28 25 29 29 28 29 24 21 19 15 14 15 16 16 13
33 33 36 39 37 34 30 28 28 30 29 27 27 17 14 15 14 14 14 15 13 12
34 35 38 41 36 34 29 27 29 27 26 25 23 16 16 15 13 13 12 13 12 12
34 37 39 40 36 29 28 29 30 28 26 26 23 20 18 16 15 14 13 14 13 14
36 38 40 39 35 30 29 30 30 28 26 25 22 21 19 17 17 16 15 14 13 12
Wind_Direction_500mb
225 225 222 238 249 262 263 267 276 279 277 277 278 279 279 280 280 278 276 278 271 265
222 230 242 251 259 265 270 272 275 277 279 280 280 280 280 281 279 275 276 278 274 270
227 233 250 258 270 273 275 277 278 279 280 280 281 281 281 280 277 279 279 278 277 272
233 240 250 264 267 270 274 275 279 280 281 280 279 279 279 278 279 277 273 277 274 267
231 242 252 260 269 275 277 280 280 281 280 278 276 275 273 273 275 274 271 271 268 259
249 262 269 274 281 283 283 284 284 281 277 274 273 272 270 271 269 272 273 273 268 262
250 263 271 278 280 284 287 286 280 277 274 274 272 269 268 266 267 268 268 268 262 253
258 267 273 279 283 287 288 288 284 275 272 269 269 267 266 263 263 264 265 271 255 243
261 272 278 283 286 287 288 291 300 286 279 276 270 266 263 261 254 258 254 243 237 238
265 274 281 286 290 291 291 290 289 292 282 275 277 265 254 249 232 226 223 224 223 217
267 277 283 287 290 289 287 283 285 283 276 268 266 251 231 214 209 210 210 216 222 225
265 276 282 287 287 283 281 283 279 273 265 263 260 230 212 202 202 212 213 222 231 246
266 276 282 285 281 280 277 275 270 261 255 256 244 219 213 215 214 222 226 236 242 259
269 275 278 279 280 275 271 268 262 252 245 243 223 214 217 225 230 235 237 243 248 254
Wind_Speed_850mb
41 39 31 33 34 37 39 43 46 43 40 40 42 42 44 45 44 43 45 46 38 36
39 34 37 36 34 36 40 43 44 45 44 44 44 44 44 43 42 42 43 45 39 38
37 31 30 30 33 36 41 43 45 46 46 46 46 46 45 43 41 40 39 40 34 34
30 24 26 31 35 39 41 45 45 46 45 45 45 43 40 39 37 36 36 37 34 31
29 27 29 33 36 38 40 43 42 43 43 42 43 40 38 36 35 34 35 36 36 33
25 25 28 31 34 37 39 40 43 42 42 42 40 37 37 35 35 34 34 33 32 31
27 26 30 33 35 37 39 40 41 41 41 39 37 35 34 34 35 33 32 30 29 28
27 29 32 34 35 35 34 35 37 39 38 38 36 34 33 33 33 29 26 23 22 25
30 30 33 34 34 33 31 31 32 31 31 33 35 32 30 29 26 22 17 17 18 18
30 30 34 36 36 33 30 28 25 29 29 28 29 24 21 19 15 14 15 16 16 13
33 33 36 39 37 34 30 28 28 30 29 27 27 17 14 15 14 14 14 15 13 12
34 35 38 41 36 34 29 27 29 27 26 25 23 16 16 15 13 13 12 13 12 12
34 37 39 40 36 29 28 29 30 28 26 26 23 20 18 16 15 14 13 14 13 14
36 38 40 39 35 30 29 30 30 28 26 25 22 21 19 17 17 16 15 14 13 12
Wind_Direction_850mb
225 225 222 238 249 262 263 267 276 279 277 277 278 279 279 280 280 278 276 278 271 265
222 230 242 251 259 265 270 272 275 277 279 280 280 280 280 281 279 275 276 278 274 270
227 233 250 258 270 273 275 277 278 279 280 280 281 281 281 280 277 279 279 278 277 272
233 240 250 264 267 270 274 275 279 280 281 280 279 279 279 278 279 277 273 277 274 267
231 242 252 260 269 275 277 280 280 281 280 278 276 275 273 273 275 274 271 271 268 259
249 262 269 274 281 283 283 284 284 281 277 274 273 272 270 271 269 272 273 273 268 262
250 263 271 278 280 284 287 286 280 277 274 274 272 269 268 266 267 268 268 268 262 253
258 267 273 279 283 287 288 288 284 275 272 269 269 267 266 263 263 264 265 271 255 243
261 272 278 283 286 287 288 291 300 286 279 276 270 266 263 261 254 258 254 243 237 238
265 274 281 286 290 291 291 290 289 292 282 275 277 265 254 249 232 226 223 224 223 217
267 277 283 287 290 289 287 283 285 283 276 268 266 251 231 214 209 210 210 216 222 225
265 276 282 287 287 283 281 283 279 273 265 263 260 230 212 202 202 212 213 222 231 246
266 276 282 285 281 280 277 275 270 261 255 256 244 219 213 215 214 222 226 236 242 259
269 275 278 279 280 275 271 268 262 252 245 243 223 214 217 225 230 235 237 243 248 254